Presure
132 115 117 136 139 138 138 137 136 132 135 136 131 135 138 137 137 137 139 124 130 133 128 136 141 137 130 130 122 118 115 125 126 109 130 123 113 108 126 129 123 112 108 117 103 104 108 115 127
111 146 143 135 142 154 156 184 192 183 178 235 225 216 227 182 201 210 202 192 194 169 140 141 143 140 140 125 137 141 129 130 131 136 136 120 140 139 112 134 108 108 99 119 111 100 108 121 121
159 155 172 170 211 214 214 205 209 224 229 219 225 225 214 192 190 236 238 228 250 266 256 239 236 260 206 177 224 213 222 215 214 147 144 151 141 130 134 139 136 117 121 125 147 142 127 143 140
208 217 219 210 217 211 216 208 196 225 218 205 160 180 219 223 214 236 174 172 259 227 265 253 243 160 130 245 239 204 242 206 235 218 214 189 270 228 163 157 173 237 312 263 284 298 134 158 220
209 192 206 207 205 208 203 179 212 220 199 195 150 200 202 205 222 212 235 244 263 265 259 253 228 246 219 252 138 222 203 226 241 249 236 124 157 129 212 208 224 216 250 247 214 140 259 174 129
193 200 208 204 160 200 212 178 136 146 214 216 217 210 207 208 212 194 216 226 243 249 244 253 243 237 240 251 235 213 222 226 223 253 184 260 135 234 215 225 209 216 248 260 280 236 250 234 226
193 196 187 189 193 195 201 146 213 200 190 201 205 206 203 221 209 223 208 226 221 227 244 248 237 240 238 238 232 215 224 220 229 245 210 214 256 237 223 226 213 222 228 228 199 262 275 226 247
142 148 187 196 185 199 179 198 189 214 218 204 210 205 199 209 198 225 211 202 225 214 226 211 249 228 237 231 227 239 227 210 222 244 250 244 268 228 224 231 237 221 223 241 257 246 285 243 241
202 155 171 157 153 167 196 202 208 139 175 211 195 171 169 197 204 212 205 205 202 209 228 226 244 273 225 252 230 232 224 224 200 247 259 236 258 240 239 240 237 234 224 242 235 261 232 220 256
187 173 188 162 192 195 200 174 132 196 180 198 198 211 208 210 206 214 201 200 224 213 216 206 235 242 259 239 245 225 223 221 228 227 239 255 256 253 237 244 229 241 249 208 207 188 194 240 229
194 194 188 193 196 198 196 199 203 193 203 208 209 197 191 200 209 198 199 205 202 209 218 220 208 237 271 241 249 229 224 218 208 245 272 240 245 242 254 215 242 205 212 214 248 205 225 225 188
188 187 189 195 200 205 197 205 199 211 206 208 197 205 202 211 213 201 200 216 202 218 192 220 233 222 286 233 201 232 205 221 213 245 212 230 244 237 216 242 243 200 193 198 205 194 196 188 184
171 195 199 213 202 216 198 193 203 166 204 200 207 186 207 202 182 191 214 198 194 206 198 228 236 239 275 259 181 230 180 204 187 212 217 226 240 218 226 215 203 220 205 181 196 178 191 177 184
203 208 183 182 183 189 193 215 210 188 209 198 195 198 207 210 198 199 205 191 214 202 207 221 241 262 284 263 238 234 213 199 218 249 214 240 223 236 202 217 201 195 181 193 189 185 180 172 191
186 178 187 177 184 191 201 201 198 199 214 202 205 201 205 197 197 209 206 215 214 204 214 214 246 270 265 262 230 234 209 202 191 229 201 248 241 220 208 199 207 185 180 193 183 179 177 187 188
190 193 196 193 190 206 197 194 203 197 191 204 196 200 203 205 182 209 220 192 194 206 204 216 243 274 266 268 246 223 198 207 203 247 216 236 240 220 198 196 184 186 185 183 176 179 181 164 187
203 203 193 201 206 187 201 200 200 203 196 197 196 200 195 205 217 210 200 202 208 203 218 232 243 272 261 252 250 221 199 205 219 183 212 240 237 207 197 193 182 189 177 186 183 180 171 173 196
182 181 191 186 206 191 195 170 204 190 198 197 196 192 205 191 215 202 210 227 204 204 221 229 253 278 255 237 240 159 184 202 206 224 228 237 232 203 208 183 182 189 175 188 168 179 173 187 178
203 207 180 213 199 178 187 189 190 111 191 200 205 204 199 200 201 202 215 219 198 201 206 240 265 275 247 238 235 211 201 201 213 220 208 224 226 221 189 193 187 182 187 183 190 176 162 189 160
195 183 214 203 203 199 190 196 175 205 183 198 203 195 205 204 194 209 215 202 199 211 228 248 297 263 280 241 229 115 197 202 208 219 224 215 234 205 190 197 177 184 180 188 172 172 172 170 176
204 203 174 202 206 203 198 180 197 213 194 207 205 203 199 213 210 143 212 196 211 198 233 252 284 390 260 239 217 200 193 194 207 216 207 220 230 215 193 183 195 192 192 190 189 193 193 155 191
213 211 211 209 215 218 219 227 211 205 208 192 217 210 207 219 215 218 205 205 187 193 240 264 257 382 238 232 215 206 193 183 202 213 204 220 235 205 207 195 189 191 190 182 157 188 178 176 172
223 212 217 217 219 211 195 203 197 236 219 214 211 209 211 219 221 215 196 179 211 187 238 271 289 310 227 230 215 208 194 188 195 209 207 219 223 233 210 188 171 177 176 178 188 175 204 179 181
227 216 219 220 220 218 204 212 232 223 220 216 213 206 208 221 232 227 204 242 233 217 240 280 368 257 228 224 214 206 196 192 202 225 196 219 215 222 213 195 189 179 185 178 190 195 177 177 168
234 223 220 221 223 148 216 220 78 235 219 210 129 128 181 187 228 211 231 226 209 226 252 281 363 237 229 220 208 199 187 210 191 237 205 204 212 206 214 211 189 184 183 180 201 179 166 150 158
231 228 230 226 222 223 219 134 76 234 210 205 97 94 175 203 226 229 228 206 226 246 260 281 325 235 227 211 204 201 193 203 224 203 211 205 212 206 207 204 193 193 208 207 213 205 193 182 178
256 247 248 248 250 242 245 244 230 229 217 116 101 111 217 87 238 237 172 218 245 241 266 294 249 230 221 198 204 200 190 203 217 226 237 208 202 204 203 202 198 196 213 199 192 207 175 188 190
249 249 246 249 248 253 244 244 243 229 219 214 207 137 218 229 230 212 228 239 245 256 234 313 240 228 214 204 204 200 191 191 207 212 200 239 195 199 205 195 204 196 183 193 188 191 188 176 175
248 249 252 252 253 253 116 248 243 235 227 220 218 219 226 151 233 185 234 235 247 264 283 318 233 222 206 204 204 194 194 188 194 219 182 216 225 196 200 192 200 193 201 191 186 193 195 191 183
256 258 251 253 254 251 263 252 239 236 231 230 232 233 228 250 234 232 236 242 257 282 276 318 228 221 211 203 207 198 202 173 206 206 217 228 206 220 206 200 188 206 193 194 193 187 183 184 184
Wind_Speed
70 55 58 74 77 77 77 79 78 77 79 81 77 80 82 82 79 79 80 65 69 71 65 73 77 73 66 66 59 57 55 63 64 56 69 65 58 52 64 69 67 50 40 56 37 38 42 53 67
55 82 80 74 78 84 85 68 65 67 73 40 47 56 52 81 69 65 64 67 67 79 81 83 84 77 77 58 73 77 63 65 64 70 70 64 77 76 54 73 48 45 28 57 47 46 59 62 62
84 82 70 85 57 56 51 59 55 46 41 48 47 49 58 68 71 50 50 53 46 38 40 47 47 41 56 82 47 52 67 57 60 80 76 86 78 72 77 82 75 56 63 67 88 81 66 82 81
62 50 48 58 50 56 48 54 62 43 46 59 81 70 51 50 55 49 82 77 38 50 37 39 42 83 63 44 40 78 36 77 49 71 68 68 12 34 95 90 51 44 23 56 53 54 77 54 50
59 76 57 57 60 56 59 65 48 45 52 57 82 58 56 58 46 57 49 43 33 29 33 36 49 41 42 40 47 49 48 49 38 38 39 50 60 61 63 68 51 48 46 51 62 74 57 50 50
69 63 54 59 75 63 56 58 76 79 46 44 43 48 50 49 46 69 55 50 38 30 34 34 38 40 40 38 37 56 48 43 48 35 36 34 48 50 64 52 56 70 43 41 36 56 55 64 63
67 63 67 68 67 64 59 70 49 53 58 48 44 45 47 44 42 41 52 45 41 45 33 31 38 42 41 38 38 46 42 49 38 37 55 33 41 48 58 55 64 65 62 54 56 36 40 47 47
75 75 64 65 74 67 66 52 58 54 52 48 46 45 44 38 51 38 41 57 43 49 41 54 36 43 43 42 39 30 34 52 40 39 35 32 40 48 53 53 54 61 56 43 27 39 31 40 45
64 72 74 82 84 79 65 59 54 76 61 49 49 63 63 41 34 35 42 47 54 53 44 49 39 43 46 43 42 33 33 31 59 34 28 36 43 44 53 55 57 49 44 27 20 19 23 34 32
72 72 69 80 72 73 70 65 65 58 64 48 48 51 42 45 29 43 39 45 45 47 49 60 43 44 44 44 40 37 30 29 34 35 29 27 37 48 48 45 43 35 32 25 24 43 35 20 20
74 68 70 72 78 75 70 73 68 57 62 59 58 46 41 36 34 36 44 42 48 49 46 50 58 45 41 43 40 35 25 33 42 28 20 29 37 42 48 34 36 28 20 21 19 28 13 13 34
73 71 72 76 78 79 75 72 71 66 65 64 57 54 44 47 48 33 45 52 40 49 69 46 43 51 43 41 37 34 42 31 35 25 30 31 34 41 33 33 36 21 18 18 20 18 15 24 27
79 78 76 73 73 72 74 73 72 60 67 66 64 53 58 41 52 38 50 36 58 50 67 47 41 45 41 40 33 33 37 34 44 28 27 37 34 35 32 37 28 27 25 25 23 30 18 28 27
79 74 75 74 73 75 77 70 70 71 73 68 61 58 60 57 45 39 38 40 44 54 58 48 39 53 40 38 34 32 31 38 30 22 31 36 39 34 27 38 28 33 29 24 26 21 25 34 25
80 78 76 77 79 79 79 72 72 73 73 71 69 62 64 52 41 51 39 42 43 52 48 48 46 53 40 36 32 29 30 33 39 28 35 31 38 41 33 33 40 34 31 24 26 29 24 25 23
87 84 82 81 84 78 77 69 73 70 70 74 66 68 71 69 48 41 49 41 53 51 58 45 47 52 40 34 31 29 39 31 35 24 33 31 34 45 34 42 38 38 38 33 33 29 28 36 25
84 85 88 85 81 74 75 71 75 76 73 73 69 73 65 68 68 42 31 38 46 50 47 43 48 48 39 34 31 29 37 32 26 36 31 31 39 44 39 41 37 36 39 38 31 30 31 30 18
80 80 83 82 82 83 77 62 74 68 74 79 78 73 80 59 67 44 57 55 42 50 54 41 54 45 39 34 31 29 35 35 32 29 32 30 41 43 48 42 41 43 40 40 36 35 28 22 26
89 91 80 81 88 74 82 80 72 23 74 80 81 81 76 68 50 57 68 41 48 53 57 49 55 41 38 35 32 31 34 35 29 28 26 33 41 51 43 48 46 43 45 42 35 35 38 26 41
96 87 83 82 89 88 81 74 63 79 71 77 82 77 81 66 52 65 65 39 47 50 57 55 53 36 36 34 32 27 36 33 28 29 32 29 43 48 43 51 41 48 43 42 39 40 38 37 33
96 94 84 91 92 85 78 66 81 79 81 80 82 81 76 74 65 39 55 45 48 57 54 60 43 32 34 34 33 35 37 37 27 30 25 30 44 52 51 46 45 45 43 37 34 36 37 42 32
100 99 99 96 95 88 84 75 77 79 82 81 84 83 77 74 70 65 51 49 59 42 55 60 33 32 35 34 35 33 35 39 28 32 25 33 41 52 58 57 49 41 43 38 39 44 38 47 40
95 97 98 96 95 83 73 71 74 71 77 79 81 79 74 72 69 59 45 63 55 40 49 56 33 36 37 40 37 34 36 39 30 32 30 33 34 41 65 51 35 38 38 40 46 36 54 46 45
97 96 97 96 93 84 80 81 75 65 74 78 80 76 70 65 64 59 49 57 54 51 49 50 36 41 38 41 38 35 34 38 31 29 35 34 36 34 53 60 53 45 45 49 49 49 42 42 41
95 96 94 93 91 49 84 81 20 71 71 75 15 14 48 51 60 53 54 41 53 48 56 40 34 42 41 41 38 36 39 31 32 28 43 33 39 37 42 53 51 50 45 48 60 51 41 47 47
94 95 95 93 90 87 84 36 17 67 65 65 23 20 48 56 58 57 43 49 48 50 51 37 35 45 44 39 39 38 34 33 27 32 40 42 40 43 43 48 50 50 62 57 59 56 40 40 49
83 92 87 90 84 84 74 72 75 70 69 38 34 42 63 15 69 59 51 42 54 48 48 38 48 46 43 36 43 37 34 33 26 24 35 50 41 43 46 46 45 43 56 44 37 49 40 41 46
86 86 86 84 82 75 70 72 74 72 72 72 67 37 59 63 61 45 45 46 49 49 45 39 52 48 45 42 42 35 32 33 29 29 34 43 47 41 46 41 49 45 37 45 39 45 47 44 47
84 84 85 84 80 75 23 72 73 74 73 71 69 65 63 34 61 37 46 43 56 56 45 43 53 49 42 45 45 38 33 34 34 26 34 41 48 51 43 37 44 43 49 48 44 48 49 47 48
83 86 87 87 83 75 74 69 72 73 71 71 73 69 63 66 60 52 44 53 58 52 44 47 54 52 48 45 47 40 34 42 25 29 29 32 38 51 58 44 34 53 45 47 49 47 47 50 54
Wind_Direction
272 267 268 273 272 272 273 273 272 272 272 272 271 271 271 271 271 271 271 268 268 269 267 269 270 268 265 265 264 263 262 263 264 269 269 271 272 274 271 271 271 269 270 267 269 275 281 280 272
265 271 271 271 272 273 274 280 280 277 275 291 286 279 288 273 279 279 279 275 274 269 271 272 272 271 271 264 270 269 264 265 264 267 267 266 272 271 273 267 276 279 265 276 273 279 274 271 278
272 272 273 274 275 278 277 279 283 288 292 285 288 287 281 280 279 299 292 287 293 293 285 275 280 278 265 268 270 263 261 268 267 269 270 269 270 266 267 267 265 269 272 276 269 270 272 271 272
273 274 279 275 279 277 281 280 281 292 289 282 275 279 289 296 287 305 273 270 301 281 289 284 279 267 271 272 267 265 280 265 265 263 265 267 264 256 262 265 267 249 239 257 251 246 275 261 260
271 277 277 277 276 277 276 276 293 290 283 283 275 284 286 286 303 296 312 315 313 303 292 286 276 283 277 278 255 263 265 265 274 279 266 272 268 276 255 255 246 251 248 247 254 268 249 257 270
275 276 281 279 271 277 283 281 273 274 289 291 291 288 288 292 296 283 299 307 324 308 293 291 279 276 279 280 272 262 267 268 266 276 268 219 274 240 255 238 256 265 257 253 251 252 251 253 254
274 275 275 277 280 280 281 272 300 288 283 286 285 284 284 299 296 309 296 314 303 302 305 298 278 279 275 272 265 258 267 265 275 278 261 255 218 229 248 248 265 264 262 269 268 255 237 248 246
272 272 277 283 276 282 279 285 276 291 288 284 285 282 283 286 284 315 296 288 309 292 299 280 297 274 273 270 261 268 269 261 268 277 264 246 223 251 259 250 244 267 273 266 254 262 216 239 242
278 275 272 273 274 276 284 290 288 277 281 285 278 280 282 274 291 306 292 292 289 289 308 297 314 303 274 270 265 264 262 265 262 274 271 254 224 243 239 244 246 250 268 258 258 223 238 243 226
273 273 279 274 282 285 289 281 271 287 275 280 282 286 286 291 295 305 302 294 312 300 294 283 307 301 283 274 266 261 262 259 271 270 268 230 229 227 244 232 255 244 224 265 264 254 257 217 224
277 280 278 283 283 285 287 289 290 284 283 286 286 281 270 268 294 276 294 310 302 301 299 294 285 298 281 278 270 262 264 259 259 283 267 240 234 232 226 251 232 244 254 246 191 263 181 206 249
276 277 277 280 281 283 285 284 287 284 284 285 287 286 286 289 298 282 281 316 290 308 278 294 305 288 291 281 264 268 259 265 262 272 265 248 239 232 239 219 215 246 242 240 223 226 239 254 261
273 277 279 278 280 276 280 283 281 273 281 283 285 277 291 276 255 274 303 293 284 284 278 310 306 294 288 268 258 263 261 257 259 258 251 243 237 240 214 219 227 224 223 242 210 250 246 256 259
270 274 277 277 280 280 279 273 279 279 276 284 286 288 290 287 282 292 302 275 302 279 282 300 307 307 288 264 268 255 256 260 265 261 255 241 239 211 227 217 220 222 240 232 228 231 241 253 260
271 275 273 276 275 276 270 276 279 281 276 284 283 286 289 281 278 298 303 312 300 283 293 288 310 305 284 262 265 246 251 253 259 257 256 231 224 206 204 210 201 227 242 234 227 235 242 252 263
272 273 272 269 270 269 275 277 276 279 281 279 283 285 284 284 251 297 305 275 280 287 279 286 309 303 280 254 254 243 251 250 254 240 247 234 210 207 213 212 223 224 233 238 230 227 235 252 261
265 265 266 269 270 276 275 276 277 277 280 282 283 283 280 286 289 297 287 290 291 282 295 297 303 297 274 256 243 236 249 251 256 264 249 219 209 216 217 213 224 223 233 232 234 229 234 250 227
260 268 268 275 269 276 274 269 268 280 276 276 277 280 280 279 286 289 295 297 279 279 299 287 302 292 266 255 239 238 246 250 253 253 236 222 208 211 214 220 225 228 235 233 239 231 234 229 235
263 264 268 263 266 270 273 274 278 269 278 274 273 274 278 279 288 289 293 291 272 275 282 299 303 283 259 245 230 232 242 250 252 254 239 225 212 219 216 218 222 227 231 233 230 231 235 227 245
262 264 266 264 263 265 270 269 267 267 270 271 271 275 276 281 272 287 291 277 280 291 303 299 303 271 244 238 226 242 244 249 250 250 243 242 214 225 216 223 225 229 231 230 232 233 234 225 222
260 262 262 261 261 263 266 266 268 267 272 269 270 272 275 277 277 277 290 271 289 274 300 298 292 262 233 228 228 229 244 250 250 245 244 240 204 218 218 231 221 231 233 233 234 243 251 250 247
256 258 259 262 265 269 271 267 266 269 266 271 264 268 272 275 279 282 272 282 272 275 295 294 268 252 232 224 226 228 242 251 248 241 243 232 215 215 219 222 228 235 238 242 230 244 230 235 232
254 258 259 261 264 264 263 264 263 260 259 261 263 267 272 273 275 271 257 267 282 272 282 293 262 232 232 220 226 230 239 250 250 242 247 231 219 212 213 229 236 235 242 239 242 217 254 243 251
252 254 258 259 262 263 263 266 265 253 256 258 260 264 269 271 270 270 266 283 285 273 278 291 276 223 230 224 224 234 237 247 246 233 254 228 225 207 214 220 226 232 239 237 243 239 232 234 234
252 254 257 260 262 263 260 261 232 252 249 252 222 247 264 265 270 263 278 267 263 274 283 287 259 222 221 223 229 236 242 242 249 241 240 239 228 218 215 217 225 235 241 239 241 239 248 257 245
251 253 255 258 260 260 260 252 265 254 253 254 259 254 263 266 268 271 259 252 271 280 283 276 240 216 217 221 230 235 239 242 235 245 227 245 226 231 223 217 225 232 229 233 232 233 248 244 243
252 252 252 254 254 255 253 248 251 249 250 237 264 263 263 271 267 268 263 257 279 267 281 267 207 213 215 224 228 232 235 245 240 247 229 231 242 230 230 235 238 239 229 248 247 244 240 256 261
247 250 252 252 253 251 248 245 245 244 247 251 254 258 262 265 266 262 265 270 274 274 264 257 207 207 214 220 228 229 229 244 245 242 243 225 247 242 234 237 235 244 251 249 253 250 251 250 254
248 250 251 252 251 250 245 242 242 245 246 250 254 258 262 231 264 249 264 257 274 269 255 241 206 207 215 221 227 223 224 239 241 249 242 236 228 246 247 242 240 243 242 246 250 249 251 254 260
243 244 247 251 252 251 251 242 242 244 248 250 252 256 257 263 260 262 265 272 268 267 238 227 208 208 211 220 227 227 229 242 238 247 247 233 240 232 239 253 251 244 248 248 250 255 259 263 264